AKST,Max TemperatureF,Mean TemperatureF,Min TemperatureF,Max Dew PointF,MeanDew PointF,Min DewpointF,Max Humidity, Mean Humidity, Min Humidity, Max Sea Level PressureIn, Mean Sea Level PressureIn, Min Sea Level PressureIn, Max VisibilityMiles, Mean VisibilityMiles, Min VisibilityMiles, Max Wind SpeedMPH, Mean Wind SpeedMPH, Max Gust SpeedMPH,PrecipitationIn, CloudCover, Events, WindDirDegrees
2012-2-1,37,35,33,36,33,30,0,0,0,29.11,28.54,28.24,9,3,0,38,22,49,0.66,8,Fog-Rain-Snow,83
2012-2-2,36,30,24,32,25,10,0,0,0,29.25,28.76,28.38,10,6,1,25,16,33,0.37,8,Rain-Snow,174
2012-2-3,25,22,18,12,4,-6,0,0,0,29.84,29.39,29.09,10,9,6,39,21,51,T,3,Snow,277
2012-2-4,35,21,7,36,26,0,0,0,0,29.96,29.85,29.68,10,5,1,31,16,38,0.00,8,Rain-Snow,86
2012-2-5,38,37,36,36,34,33,0,0,0,29.79,29.61,29.49,8,4,2,33,22,41,0.45,8,Rain,102
2012-2-6,39,37,35,36,34,33,0,0,0,29.93,29.87,29.79,10,4,0,20,12,25,0.03,8,Rain,72
2012-2-7,39,38,36,34,34,33,0,0,0,29.78,29.55,29.36,10,7,2,29,20,37,0.22,8,Rain,32
2012-2-8,39,38,37,37,36,31,0,0,0,29.33,29.12,29.02,9,4,2,35,24,44,0.80,8,Rain,62
2012-2-9,40,39,37,34,33,30,0,0,0,29.54,29.47,29.27,10,6,3,35,16,41,0.09,8,Rain,94
2012-2-10,37,34,30,35,32,28,0,0,0,29.48,29.38,29.13,10,8,2,10,6,14,0.01,7,Rain-Snow,61
2012-2-11,40,38,36,36,33,29,0,0,0,29.11,28.97,28.91,10,7,2,33,18,41,0.23,8,Rain-Snow,122
2012-2-12,38,37,35,34,31,25,0,0,0,29.39,29.22,29.06,10,7,1,24,12,31,0.02,7,Rain-Snow,147
2012-2-13,38,35,32,32,26,18,0,0,0,29.66,29.29,29.11,10,10,10,26,10,44,0.01,4,,220
2012-2-14,37,30,22,34,29,16,0,0,0,29.73,29.57,29.37,10,5,0,20,13,22,T,7,Fog-Rain-Snow,84
2012-2-15,41,37,33,35,32,27,0,0,0,29.51,29.35,29.11,10,7,1,20,13,24,0.60,6,Rain-Snow,143
2012-2-16,38,36,34,36,33,30,0,0,0,29.48,29.32,29.17,10,7,2,35,16,41,0.24,7,Rain-Snow,93
2012-2-17,39,34,29,31,28,24,0,0,0,29.70,29.64,29.48,10,10,10,8,3,12,0.00,4,,204
2012-2-18,37,35,33,34,32,27,0,0,0,29.62,29.36,29.22,10,5,2,35,14,41,0.36,8,Rain-Snow,44
2012-2-19,36,35,34,34,32,30,0,0,0,29.47,29.32,29.00,10,8,2,12,7,15,0.08,8,Rain-Snow,41
2012-2-20,38,36,33,36,31,24,0,0,0,29.08,28.74,28.50,10,6,1,33,19,41,0.44,7,Rain-Snow,312
2012-2-21,37,32,26,23,20,17,0,0,0,29.65,29.36,29.10,10,10,10,24,8,30,0.00,5,,265
2012-2-22,38,30,22,24,19,14,0,0,0,30.12,29.92,29.68,10,10,10,24,7,31,0.00,2,,266
2012-2-23,30,27,23,14,12,9,0,0,0,30.29,30.22,30.15,10,10,10,26,10,33,0.00,1,,279
2012-2-24,33,26,18,18,12,5,0,0,0,30.30,30.26,30.17,10,10,10,18,4,21,0.00,4,,251
2012-2-25,38,32,26,34,27,18,0,0,0,30.16,30.11,29.96,10,8,2,23,7,31,0.03,8,Rain-Snow,206
2012-2-26,41,38,34,32,29,24,0,0,0,29.94,29.56,29.33,10,10,10,31,12,40,T,6,Rain-Snow,197
2012-2-27,37,29,20,27,19,7,0,0,0,29.48,29.38,29.31,10,10,9,40,19,48,T,4,Snow,281
2012-2-28,21,18,14,7,5,1,0,0,0,29.67,29.60,29.49,10,10,10,35,18,48,0.00,3,,296
2012-2-29,24,19,13,8,6,2,0,0,0,29.68,29.65,29.56,10,10,10,20,8,28,0.00,3,,287